Regional Weather Roundup
Issued by NWS

Home | Current Version | Previous Version | Text Only | Print | Product List | Glossary On
Versions: 1 2 3 4 5 6 7 8 9 10 11 12 13 14 15 16 17 18 19 20 21 22 23 24 25 26 27 28 29 30 31 32 33 34 35 36 37 38 39 40 41 42 43 44 45 46 47 48 49 50
000
ASUS44 KLUB 101501
RWRTX
WEST TEXAS WEATHER ROUNDUP
NATIONAL WEATHER SERVICE LUBBOCK TX
900 AM CST WED FEB 10 2016

NOTE: "FAIR" INDICATES FEW OR NO CLOUDS BELOW 12,000 FEET WITH NO
SIGNIFICANT WEATHER AND/OR OBSTRUCTIONS TO VISIBILITY.

TXZ004-006>008-010-012-014-016-OKZ002-101600-
TEXAS PANHANDLE/OKLAHOMA PANHANDLE

CITY           SKY/WX    TMP DP  RH WIND       PRES   REMARKS
AMARILLO       SUNNY     48  23  37 W14       30.25S
BORGER         SUNNY     42  21  43 W15       30.22S
CANADIAN       SUNNY     32  29  88 CALM      30.19S
DALHART        CLOUDY    43  22  43 W10       30.23S
DUMAS          SUNNY     40  22  47 W16       30.22S WCI  31
GUYMON         SUNNY     44  21  40 W12       30.14F
$$

TXZ026-029-035-045-048-101600-
SOUTHERN PANHANDLE/SOUTH PLAINS/ROLLING PLAINS

CITY           SKY/WX    TMP DP  RH WIND       PRES   REMARKS
CHILDRESS      SUNNY     38  27  64 W8        30.23F WCI  32
LUBBOCK        MOSUNNY   36  21  54 W12       30.30S WCI  28
SNYDER           N/A     38  25  59 SW8       30.33R WCI  32
$$

TXZ052-054-060>062-072-078-127-140-154-169-101600-
PERMIAN BASIN/CONCHO VALLEY/BIG COUNTRY/EDWARDS PLATEAU

CITY           SKY/WX    TMP DP  RH WIND       PRES   REMARKS
ABILENE        SUNNY     47  30  51 S7        30.32S
BROWNWOOD      SUNNY     41  28  60 MISG      30.37R
JUNCTION       SUNNY     35  25  66 W3        30.39R
MIDLAND        SUNNY     45  29  53 W3        30.34R
ODESSA         SUNNY     44  25  47 W3        30.34S
SAN ANGELO     SUNNY     40  25  55 W3        30.36R
WINK           SUNNY     38  22  52 N5        30.35R WCI  34
$$

TXZ055-058-074-075-080-082-101600-
FAR WEST/SOUTHWEST MOUNTAINS/TRANS PECOS

CITY           SKY/WX    TMP DP  RH WIND       PRES   REMARKS
DRYDEN           N/A     53  23  31 W3        30.34R
EL PASO        PTSUNNY   41  20  43 N8        30.39R
FORT STOCKTON  SUNNY     47  24  40 SW9       30.36R
GUADALUPE PASS CLOUDY    42  19  39 SW12      30.41R
MARFA          CLOUDY    42  18  37 N3        30.42S
PECOS          SUNNY     37  24  59 CALM      30.37R
PRESIDIO       FAIR      46  19  34 CALM      30.39S
$$

TXZ014-016-019-021>030-083-101600
TEXAS TECH WEST TEXAS MESONET/TEXAS PANHANDLE/NORTHERN SOUTH PLAINS

CITY           SKY/WX    TMP DP  RH WIND       PRES   REMARKS
ABERNATHY 5ENE   N/A     38  23  55 W10       30.30S WCI  31
AMARILLO 9NNE    N/A     33  24  70 CALM      30.26S
AMARILLO 7SSE    N/A     33  21  60 W9        30.27S WCI  25
AMHERST 1NE      N/A     39  22  50 W8        30.31S WCI  33
BOOTLEG 11WNW    N/A     43  21  41 SW13      30.30R
CANADIAN 6E      N/A     36  27  70 W5        30.17S WCI  32
CLARENDON 2WSW   N/A     43  28  56 SW7       30.23S
$$

TXZ033>036-039>041-045>048-101600
TEXAS TECH WEST TEXAS MESONET/SOUTH PLAINS

CITY           SKY/WX    TMP DP  RH WIND       PRES   REMARKS
AIKEN 3WSW       N/A     37  23  56 W8        30.30R WCI  31
ANDREWS 2NE      N/A     45  21  38 W3        30.34R
ANTON 6SSW       N/A     37  22  54 W8        30.31S WCI  31
BROWNFIELD 2S    N/A     38  22  52 W8        30.32S WCI  32
$$

TXZ031-032-036>038-042>044-101600-
TEXAS TECH WEST TEXAS MESONET/ROLLING PLAINS

CITY           SKY/WX    TMP DP  RH WIND       PRES   REMARKS
ASPERMONT 3NE    N/A     42  28  59 S9        30.30R
$$

TXZ052-054-060>062-072-078-127-140-154-169-101600-
TEXAS TECH WEST TEXAS MESONET/PERMIAN BASIN/
CONCHO VALLEY/BIG COUNTRY/EDWARDS PLATEAU

CITY           SKY/WX    TMP DP  RH WIND       PRES   REMARKS
SAN ANGELO 7NW   N/A     39  23  53 W2        30.37R
$$

TXZ055-058-074-075-080-082-101600-
TEXAS TECH WEST TEXAS MESONET/FAR WEST/SOUTHWEST MOUNTAINS/TRANS PECOS

CITY           SKY/WX    TMP DP  RH WIND       PRES   REMARKS
$$



USA.gov is the U.S. government's official web portal to all federal, state and local government web resources and services.